Home   Weather   Rehovot   Past weeks

Flag for Israel Past Weather in Rehovot, Israel — Yesterday and Last 2 Weeks

77 °F

Passing clouds.

Feels Like: 79 °F
Forecast: 70 / 81 °F
Wind: 8 mph from Northwest

Location: Ben Gurion International Airport

Current Time: Oct 24, 2016 at 7:06:30 PM

Latest Report: Oct 24, 2016 at 6:20 PM

Visibility: N/A

Pressure: 29.95 "Hg

Humidity: 65%

Dew Point: 64 °F

Location of RehovotLocation

Past Weather in Rehovot — Graph


Rehovot Temperature Yesterday

Maximum temperature yesterday: 79 °F (at 11:50 AM)
Minimum temperature yesterday: 66 °F (at 2:20 AM)
Average temperature yesterday: 73 °F

High & Low Weather Summary for the Past Weeks

High91 °F (Oct 13, 11:50 AM)89% (Oct 14, 11:50 PM)30.07 "Hg (Oct 14, 11:50 PM)
Low63 °F (Oct 16, 6:50 AM)22% (Oct 14, 10:50 AM)29.86 "Hg (Oct 16, 2:20 PM)
Average75 °F62%29.97 "Hg
* Reported Oct 9 5:20 PM — Oct 24 5:50 PM, Rehovot, Weather by CustomWeather, © 2016

Note: Actual official high and low records may vary slightly from our data, if they occured in-between our weather recording intervals... More about our weather records


Rehovot Weather History for the Previous 24 Hours

Scroll right to see more
Time TempWeatherWind HumidityBarometerVisibility
5:50 PM
Mon, Oct 24
77 °FScattered clouds.10 mph65%29.95 "HgN/A
5:20 PM77 °FScattered clouds.10 mph61%29.95 "HgN/A
4:50 PM79 °FPassing clouds.10 mph58%29.95 "HgN/A
4:20 PM79 °FPassing clouds.12 mph61%29.95 "HgN/A
3:50 PM79 °FPassing clouds.12 mph61%29.95 "HgN/A
3:20 PM79 °FPassing clouds.13 mph61%29.95 "HgN/A
2:50 PM79 °FPassing clouds.13 mph58%29.95 "HgN/A
2:20 PM81 °FPassing clouds.12 mph51%29.98 "HgN/A
1:50 PM81 °FPassing clouds.12 mph51%29.98 "HgN/A
1:20 PM81 °FPassing clouds.9 mph54%29.98 "HgN/A
12:50 PM79 °FScattered clouds.8 mph58%29.98 "HgN/A
12:20 PM79 °FScattered clouds.10 mph58%30.01 "HgN/A
11:50 AM79 °FScattered clouds.7 mph54%30.01 "HgN/A
11:20 AM79 °FScattered clouds.5 mph54%30.01 "HgN/A
10:50 AM79 °FScattered clouds.3 mph54%30.04 "HgN/A
10:20 AM79 °FScattered clouds.2 mph58%30.04 "HgN/A
9:50 AM77 °FPassing clouds.2 mph61%30.04 "HgN/A
9:20 AM75 °FSunny.2 mph61%30.04 "Hg10 mi
8:50 AM73 °FPassing clouds.2 mph65%30.04 "HgN/A
8:20 AM70 °FPassing clouds.2 mph69%30.04 "HgN/A
7:50 AM68 °FPassing clouds.2 mph73%30.04 "HgN/A
7:20 AM66 °FPassing clouds.3 mph78%30.01 "HgN/A
6:50 AM66 °FScattered clouds.3 mph78%30.01 "HgN/A
6:20 AM66 °FPassing clouds.3 mph73%30.01 "HgN/A
5:50 AM66 °FPassing clouds.3 mph78%30.01 "HgN/A
5:20 AM66 °FPassing clouds.2 mph73%30.01 "HgN/A
4:50 AM66 °FPassing clouds.2 mph73%30.01 "HgN/A
4:20 AM66 °FClear.1 mph73%30.01 "Hg10 mi
3:50 AM68 °FClear.5 mph73%30.01 "Hg10 mi
3:20 AM66 °FClear.3 mph78%30.04 "Hg10 mi
2:50 AM66 °FClear.3 mph73%30.04 "Hg10 mi
1:50 AM68 °FClear.5 mph73%30.04 "Hg10 mi
1:20 AM68 °FPassing clouds.3 mph73%30.04 "HgN/A
12:50 AM68 °FPassing clouds.5 mph73%30.04 "HgN/A
12:20 AM70 °FPassing clouds.5 mph69%30.04 "HgN/A
11:50 PM
Sun, Oct 23
70 °FPassing clouds.2 mph69%30.04 "HgN/A
11:20 PM70 °FPassing clouds.2 mph69%30.04 "HgN/A
10:50 PM70 °FPassing clouds.3 mph69%30.04 "HgN/A
10:20 PM68 °FClear.1 mph69%30.04 "Hg10 mi
9:50 PM70 °FClear.1 mph69%30.04 "Hg10 mi
9:20 PM72 °FClear.3 mph65%30.04 "Hg10 mi
8:50 PM73 °FClear.2 mph61%30.04 "Hg10 mi
8:20 PM73 °FClear.2 mph61%30.04 "Hg10 mi
7:50 PM73 °FClear.3 mph61%30.04 "Hg10 mi
7:20 PM75 °FClear.6 mph61%30.01 "Hg10 mi
Weather by CustomWeather, © 2016

See weather overviewHow to use our weather pages